User: anonymous   Login
Location: Caltech
(34.1382°N, 118.1253°W)
Time: 12:48:40
(UTC-07:00)
Language:

OAO 2 Rocket - Orbit

View from above orbital plane
View from above orbital plane
View from above satellite
View from above satellite

Ground track
Ground track

The orbit data is extracted from the following two-line orbital elements,

1 03598U 68110B   15242.83399702  .00000132  00000-0  35030-4 0  9997
2 03598 034.9940 083.0296 0050171 303.8595 055.7330 14.54089883470870
Epoch (UTC): 30 August 2015 20:00:57
Eccentricity: 0.0050171
inclination: 34.9940°
perigee height: 677 km
apogee height: 748 km
right ascension of ascending node: 83.0296°
argument of perigee: 303.8595°
revolutions per day: 14.54089883
mean anomaly at epoch: 55.7330°
orbit number at epoch: 47087

The dashed part of the orbit path shows where the satellite is in the earth's shadow,  

DLR